Location: Dalton
(34.7700°N, 84.9700°W)
Time: 16:53:52
(UTC-04:00)

ISS - Pass Details

Date: 12 October 2017
Orbit: 401 x 408 km, 51.6° (Epoch: 18 October)

Event Time Altitude Azimuth Distance (km) Brightness Sun altitude
Rises 19:34:02 0° 329° (NNW) 2,322 0.4 -6.0°
Reaches altitude 10° 19:37:33 10° 9° (N) 1,462 -1.1 -6.7°
Maximum altitude 19:38:27 11° 25° (NNE) 1,413 -1.4 -6.9°
Drops below altitude 10° 19:39:21 10° 41° (NE) 1,462 -1.4 -7.1°
Enters shadow 19:40:31 - 59° (ENE) 1,659 -1.3 -7.3°
